Weather Roundup
Issued by NWS Chicago, IL

Home | Current Version | Previous Version | Graphics & Text | Print | Product List | Glossary On
Versions: 1 2 3 4 5 6 7 8 9 10 11 12 13 14 15 16 17 18 19 20 21 22 23 24 25 26 27 28 29 30 31 32 33 34 35 36 37 38 39 40 41 42 43 44 45 46 47 48 49 50
000
NZUS59 KLOT 272204
HRRLOT

CHICAGO AREA WEATHER ROUNDUP
NATIONAL WEATHER SERVICE CHICAGO/ROMEOVILLE IL
500 PM CDT FRI MAY 27 2016

NOTE: "FAIR" INDICATES FEW OR NO CLOUDS BELOW 12,000 FEET WITH NO
SIGNIFICANT WEATHER AND/OR OBSTRUCTIONS TO VISIBILITY.

* THESE STATIONS ARE NOT UNDER NWS QUALITY CONTROL. THEY ALSO MAY NOT
  REPORT WEATHER SUCH AS PRECIPITATION OR FOG.

ILZ005-006-012>014-019>023-272300-
NORTHEAST ILLINOIS

CITY           SKY/WX    TMP DP  RH WIND       PRES   REMARKS
OHARE          CLOUDY    77  67  71 S15       29.83S
MIDWAY         CLOUDY    80  65  59 S12G22    29.83F HX  82
AURORA         CLOUDY    76  68  76 S9        29.83F
LANSING*       CLOUDY    76  67  74 S12G21    29.86S
WAUKEGAN       LGT RAIN  66  64  93 SE9       29.84R FOG
DUPAGE AIRPORT CLOUDY    72  67  84 SW10      29.83S
WHEELING       CLOUDY    76  68  76 S14       29.84F
$$

WIZ051-052-058>065-066-070>072-272300-
SOUTHEAST WISCONSIN

CITY           SKY/WX    TMP DP  RH WIND       PRES   REMARKS
MILWAUKEE      CLOUDY    69  65  86 SE10      29.83S
KENOSHA*       CLOUDY    70  66  87 SE8       29.83S
RACINE*        LGT RAIN  67  62  84 S16G26    29.86R
WAUKESHA       PTSUNNY   72  64  78 SE12      29.83S
$$

INZ001>003-010>013-019-020-272300-
NORTHWEST INDIANA

CITY           SKY/WX    TMP DP  RH WIND       PRES   REMARKS
GARY*          PTSUNNY   75  73  94 SE12      29.86F
MICHIGAN CITY* NOT AVBL
RENSSELAER*    NOT AVBL
VALPARAISO     LGT RAIN  71  68  90 W9        29.89S FOG
$$

LMZ740>746-272300-
SOUTHERN LAKE MICHIGAN

STATION/POSITION TIME  SKY/WX   TEMP WIND        PRES    VSBY
                                AIR  DIR/SP/G
                 (UTC)          (F)  (DEG/KT/KT) (MB)    (MI)
HARRISON CRIB    2100            69  180/  9/ 11   N/A
BURNHAM HARBOR   2200            65  150/  5/ 10   N/A
CALUMET HARBOR   2100            73  170/  7/ 12 1010.4R
BURNS HARBOR     2100            73  200/ 17/ 24 1011.9R
MICHIGAN CITY    2100            83  150/ 12/ 16   N/A
$$

ABBREVIATIONS USED IN REMARKS
   TC - TEMPERATURE IN CELSIUS
  WCI - WIND CHILL INDEX
   HX - HEAT INDEX
  VSB - VISIBILITY
$$



USA.gov is the U.S. government's official web portal to all federal, state and local government web resources and services.